TimeEST,TemperatureF,Dew PointF,Humidity,Sea Level PressureIn,VisibilityMPH,Wind Direction,Wind SpeedMPH,Gust SpeedMPH,PrecipitationIn,Events,Conditions,WindDirDegrees,DateUTC
12:53 AM,64.0,45.0,50,30.10,10.0,North,13.8,21.9,N/A,,Clear,10,2012-11-23 05:53:00
1:53 AM,63.0,46.9,56,30.10,10.0,North,11.5,-,N/A,,Clear,10,2012-11-23 06:53:00
2:53 AM,62.1,48.9,62,30.09,10.0,North,12.7,18.4,N/A,,Clear,10,2012-11-23 07:53:00
3:53 AM,62.1,50.0,65,30.09,10.0,North,9.2,16.1,N/A,,Clear,360,2012-11-23 08:53:00
4:53 AM,61.0,51.1,70,30.09,10.0,North,9.2,16.1,N/A,,Clear,360,2012-11-23 09:53:00
5:53 AM,61.0,51.1,70,30.10,10.0,North,9.2,-,N/A,,Clear,10,2012-11-23 10:53:00
6:53 AM,61.0,52.0,72,30.13,10.0,North,10.4,-,N/A,,Clear,10,2012-11-23 11:53:00
7:53 AM,63.0,53.1,70,30.13,10.0,North,10.4,-,N/A,,Clear,10,2012-11-23 12:53:00
8:53 AM,66.0,53.1,63,30.15,10.0,North,8.1,-,N/A,,Clear,350,2012-11-23 13:53:00
9:53 AM,66.9,54.0,63,30.16,10.0,North,9.2,-,N/A,,Clear,360,2012-11-23 14:53:00
10:53 AM,71.1,55.0,57,30.15,10.0,Variable,5.8,-,N/A,,Clear,0,2012-11-23 15:53:00
11:53 AM,71.1,55.0,57,30.13,10.0,NNW,9.2,-,N/A,,Clear,340,2012-11-23 16:53:00
12:53 PM,71.1,55.9,59,30.11,10.0,NNW,9.2,-,N/A,,Clear,330,2012-11-23 17:53:00
1:53 PM,71.1,57.9,63,30.08,10.0,NNW,6.9,-,N/A,,Clear,330,2012-11-23 18:53:00
2:53 PM,71.1,57.9,63,30.07,10.0,NNW,6.9,-,N/A,,Clear,330,2012-11-23 19:53:00
3:53 PM,70.0,57.9,65,30.06,10.0,NNW,4.6,-,N/A,,Clear,340,2012-11-23 20:53:00
4:53 PM,69.1,57.0,65,30.08,10.0,NW,8.1,-,N/A,,Clear,320,2012-11-23 21:53:00
5:53 PM,68.0,57.9,70,30.08,10.0,NNW,6.9,-,N/A,,Clear,330,2012-11-23 22:53:00
6:53 PM,66.9,57.9,73,30.09,10.0,NNW,6.9,-,N/A,,Clear,340,2012-11-23 23:53:00
7:53 PM,68.0,57.0,68,30.10,10.0,NNW,6.9,-,N/A,,Clear,330,2012-11-24 00:53:00
8:53 PM,68.0,57.0,68,30.11,10.0,NNW,8.1,-,N/A,,Clear,340,2012-11-24 01:53:00
9:53 PM,68.0,55.9,65,30.11,10.0,NNW,8.1,-,N/A,,Clear,340,2012-11-24 02:53:00
10:53 PM,66.9,53.1,61,30.11,10.0,NNW,9.2,16.1,N/A,,Scattered Clouds,340,2012-11-24 03:53:00
11:53 PM,66.9,45.0,45,30.10,10.0,North,9.2,18.4,N/A,,Partly Cloudy,360,2012-11-24 04:53:00